FENGYUN 1C DEB, 46986

Orbit data source: Space-Track

FENGYUN 1C DEB, 46986 is space debris in SSO originally from a launch on Mon, 10 May 1999 UTC launched from the Taiyaun Space Center, China (TSC). Fengyun 1C debris stems from the Chinese weather satellite Fengyun-1C, which was intentionally destroyed by a Chinese anti-satellite missile in 2007. This event dramatically increased the amount of space debris, with thousands of trackable fragments posing hazards to satellites and human spaceflight. The Fengyun 1C debris cloud has become a focal point in discussions about space sustainability and the need for international regulations to prevent the creation of new debris.

Loading next visibility...
Identifier
46986, 1999-025EZL
Orbit
SSO
Country
Flag of CNCN / PRC
Related business
Manufacturer
Unknown
Mission
Spacecraft
Bus & Motor
Unknown
Mass
Unknown
Launch date (UTC)
1999-05-10 (26 years ago)
Launch vehicle
Unknown
Launch site
Taiyaun Space Center, China (TSC)
Object type
Payload
Rocket body
Debris
Shape & HBR
Unknown shape, 0.1 m
Radar Cross Section
Small (<0.1 m²)

Expand to show TLE details & history
Last TLE update: 2 days ago

TLE from 2 days ago
0 FENGYUN 1C DEB
1 46986U 99025EZL 25309.33529884  .00001901  00000-0  50089-3 0  9995
2 46986  98.2414 334.0746 0104571 327.1422  32.3297 14.46969756628592
Epoch: 2025-11-05T08:02Z
TLE epoch observation values (Epoch: 2025-11-05T08:02:49.819Z)
Latitude
-0.00007°
Longitude
168.55759°
Altitude
675.885 km
Speed
7.552 km/s
True Right ascension
22h 16m 17s
True Declination
0° 00' 00"
Sunlit
Object was in daylight at epoch
Visualization orbit readout
Latitude
Unknown
Longitude
Unknown
Altitude
Unknown
Speed
Unknown
Apparent Right ascension
Unknown
Apparent Declination
Unknown
Sunlit
N/A
Visualization observer readout
Local Sidereal Time
19:04:01
Azimuth
Unknown
Elevation
Unknown
Doppler factor
Unknown
Orbital elements
Apogee altitude
807.021 km
Perigee altitude
658.305 km
Semi-major axis
7,110.8 km
Eccentricity
0.01046
Inclination
98.2414°
RAAN
334.0746°
Arg. of periapsis
327.1422°
True anomaly
32.97768°
Mean anomaly
32.3297°
Eccentric anomaly
32.65297°
Mean motion
3.61964 °/min
Orbital period
99.46 mins
BSTAR
0.00050089
Loading maneuver chart data...
Computing Atmospheric mass density...

Documentation

Showing up to 5 results
|